FW8892 Weather Reports


Display with metric or nautical units.
time (UTC)temp
F
wind
direction
speed
MPH
gust
MPH
rain 1hr
in
rain 24hr
in
rain mn
in
humidity
%
barometer
mb
20260901135529 88 0 0.0 4.0 0.00 0.00 0.00 70 1020.4
20260901135034 88 0 0.0 5.0 0.00 0.00 0.00 70 1020.4
20260901134556 87 203 1.0 5.0 0.00 0.00 0.00 71 1020.3
20260901134030 87 186 1.0 5.0 0.00 0.00 0.00 73 1020.5
20260901133529 86 172 0.0 3.0 0.00 0.00 0.00 76 1020.5
20260901133049 86 0 0.0 2.0 0.00 0.00 0.00 76 1020.5
20260901132530 85 139 0.0 3.0 0.00 0.00 0.00 78 1020.5
20260901132030 84 0 0.0 3.0 0.00 0.00 0.00 78 1020.5
20260901131545 83 154 0.0 3.0 0.00 0.00 0.00 80 1020.3
20260901131030 83 164 0.0 3.0 0.00 0.00 0.00 81 1020.3
20260901130531 82 0 0.0 2.0 0.00 0.00 0.00 83 1020.4
20260901130101 81 0 0.0 0.0 0.00 0.00 0.00 84 1020.3
20260901125530 79 0 0.0 0.0 0.00 0.00 0.00 86 1020.3
20260901125031 78 0 0.0 0.0 0.00 0.00 0.00 88 1020.2
20260901124552 77 0 0.0 0.0 0.00 0.00 0.00 89 1020.3
20260901124028 76 0 0.0 0.0 0.00 0.00 0.00 91 1020.2
20260901123530 75 0 0.0 0.0 0.00 0.00 0.00 93 1020.1
20260901123049 74 0 0.0 0.0 0.00 0.00 0.00 96 1020.1
20260901122531 74 0 0.0 0.0 0.00 0.00 0.00 98 1020.0
20260901122028 73 0 0.0 0.0 0.00 0.00 0.00 99 1020.0
20260901121559 72 0 0.0 0.0 0.00 0.00 0.00 99 1020.0
20260901121030 72 0 0.0 0.0 0.00 0.00 0.00 99 1019.8
20260901120528 71 0 0.0 0.0 0.00 0.00 0.00 98 1019.8
20260901120057 70 0 0.0 0.0 0.00 0.00 0.00 98 1019.8
20260901115528 70 0 0.0 0.0 0.00 0.00 0.00 97 1019.8
20260901115029 70 0 0.0 0.0 0.00 0.00 0.00 97 1019.8
20260901114558 70 0 0.0 0.0 0.00 0.00 0.00 97 1019.8
20260901114028 70 0 0.0 0.0 0.00 0.00 0.00 97 1019.7
20260901113528 70 0 0.0 0.0 0.00 0.00 0.00 97 1019.6
20260901113059 70 0 0.0 0.0 0.00 0.00 0.00 97 1019.5
20260901112529 70 0 0.0 0.0 0.00 0.00 0.00 97 1019.4
20260901112030 70 0 0.0 0.0 0.00 0.00 0.00 97 1019.4
20260901111549 70 0 0.0 0.0 0.00 0.00 0.00 97 1019.3
20260901111028 70 0 0.0 0.0 0.00 0.00 0.00 97 1019.2
20260901110529 70 0 0.0 0.0 0.00 0.00 0.00 97 1019.1
20260901110048 70 0 0.0 0.0 0.00 0.00 0.00 97 1019.1
20260901105529 70 0 0.0 0.0 0.00 0.00 0.00 96 1019.1
20260901105028 70 0 0.0 0.0 0.00 0.00 0.00 96 1018.9
20260901104545 70 0 0.0 0.0 0.00 0.00 0.00 96 1019.0
20260901104030 70 0 0.0 0.0 0.00 0.00 0.00 96 1019.1
20260901103529 70 0 0.0 0.0 0.00 0.00 0.00 97 1019.1
20260901103055 70 0 0.0 0.0 0.00 0.00 0.00 97 1019.2
20260901102528 70 0 0.0 0.0 0.00 0.00 0.00 97 1019.1
20260901102030 70 0 0.0 0.0 0.00 0.00 0.00 96 1019.1
20260901101607 70 0 0.0 0.0 0.00 0.00 0.00 96 1018.9
20260901101028 70 0 0.0 0.0 0.00 0.00 0.00 96 1019.1
20260901100528 70 0 0.0 0.0 0.00 0.00 0.00 96 1019.0
20260901100109 70 0 0.0 0.0 0.00 0.00 0.00 96 1018.9
20260901095530 70 0 0.0 0.0 0.00 0.00 0.00 96 1018.9
20260901095028 70 0 0.0 0.0 0.00 0.00 0.00 96 1018.9
20260901094601 71 0 0.0 0.0 0.00 0.00 0.00 96 1018.9
20260901094028 71 0 0.0 0.0 0.00 0.00 0.00 96 1018.8
20260901093529 71 0 0.0 0.0 0.00 0.00 0.00 96 1018.8
20260901093053 71 0 0.0 0.0 0.00 0.00 0.00 96 1018.7
20260901092525 71 0 0.0 0.0 0.00 0.00 0.00 96 1018.7
20260901092028 71 0 0.0 0.0 0.00 0.00 0.00 96 1018.7
20260901091547 71 0 0.0 0.0 0.00 0.00 0.00 96 1018.8
20260901091028 71 0 0.0 0.0 0.00 0.00 0.00 96 1018.8
20260901090530 71 0 0.0 0.0 0.00 0.00 0.00 96 1018.6
20260901090046 71 0 0.0 0.0 0.00 0.00 0.00 96 1018.7
20260901085528 71 0 0.0 0.0 0.00 0.00 0.00 97 1018.7
20260901085029 71 0 0.0 0.0 0.00 0.00 0.00 97 1018.7
20260901084608 71 0 0.0 0.0 0.00 0.00 0.00 97 1018.7
20260901084029 71 0 0.0 0.0 0.00 0.00 0.00 97 1018.7
20260901083528 71 0 0.0 0.0 0.00 0.00 0.00 96 1018.7
20260901083052 71 0 0.0 0.0 0.00 0.00 0.00 96 1018.7
20260901082530 71 0 0.0 1.0 0.00 0.00 0.00 96 1018.6
20260901082028 71 0 0.0 1.0 0.00 0.00 0.00 96 1018.7
20260901081601 71 0 0.0 1.0 0.00 0.00 0.00 96 1018.5
20260901081029 71 0 0.0 1.0 0.00 0.00 0.00 96 1018.6
20260901080529 71 0 0.0 1.0 0.00 0.00 0.00 96 1018.5
20260901080048 71 0 0.0 1.0 0.00 0.00 0.00 96 1018.4
20260901075529 71 0 0.0 1.0 0.00 0.00 0.00 96 1018.4
20260901075029 72 0 0.0 1.0 0.00 0.00 0.00 96 1018.5
20260901074558 71 0 0.0 1.0 0.00 0.00 0.00 96 1018.5
20260901074028 71 0 0.0 1.0 0.00 0.00 0.00 96 1018.3
20260901073529 72 0 0.0 1.0 0.00 0.00 0.00 95 1018.5
20260901073050 72 0 0.0 0.0 0.00 0.00 0.00 95 1018.4
20260901072528 72 0 0.0 0.0 0.00 0.00 0.00 96 1018.4
20260901072031 72 0 0.0 0.0 0.00 0.00 0.00 96 1018.3
20260901071601 72 0 0.0 0.0 0.00 0.00 0.00 96 1018.5
20260901071042 72 0 0.0 0.0 0.00 0.00 0.00 95 1018.4
20260901070531 72 0 0.0 1.0 0.00 0.00 0.00 95 1018.4
20260901070056 72 0 0.0 1.0 0.00 0.00 0.00 95 1018.4
20260901065531 72 0 0.0 0.0 0.00 0.00 0.00 95 1018.5
20260901065028 72 0 0.0 0.0 0.00 0.00 0.00 95 1018.5
20260901064551 72 0 0.0 0.0 0.00 0.00 0.00 95 1018.5
20260901064033 72 0 0.0 1.0 0.00 0.00 0.00 95 1018.6
20260901063530 72 0 0.0 1.0 0.00 0.00 0.00 95 1018.6
20260901063049 72 0 0.0 1.0 0.00 0.00 0.00 95 1018.7
20260901062528 72 0 0.0 1.0 0.00 0.00 0.00 95 1018.7
20260901062030 72 0 0.0 0.0 0.00 0.00 0.00 95 1018.8
20260901061610 72 0 0.0 1.0 0.00 0.00 0.00 94 1018.8
20260901061031 72 0 0.0 1.0 0.00 0.00 0.00 94 1018.8
20260901060530 72 0 0.0 1.0 0.00 0.00 0.00 94 1018.8
20260901060100 72 0 0.0 1.0 0.00 0.00 0.00 94 1018.9
20260901055531 72 0 0.0 0.0 0.00 0.00 0.00 94 1018.9
20260901055029 72 0 0.0 0.0 0.00 0.00 0.00 94 1018.8
20260901054554 73 0 0.0 0.0 0.00 0.00 0.00 94 1018.8
20260901054030 73 0 0.0 0.0 0.00 0.00 0.00 94 1018.8
20260901053530 73 0 0.0 0.0 0.00 0.00 0.00 93 1018.8
20260901053118 73 0 0.0 0.0 0.00 0.00 0.00 93 1018.8
20260901052529 73 0 0.0 0.0 0.00 0.00 0.00 93 1018.8
20260901052028 73 0 0.0 0.0 0.00 0.00 0.00 93 1018.8
20260901051546 73 0 0.0 0.0 0.00 0.00 0.00 93 1018.8
20260901051031 73 0 0.0 0.0 0.00 0.00 0.00 93 1018.8
20260901050528 73 0 0.0 0.0 0.00 0.00 0.00 93 1018.8
20260901050100 73 0 0.0 1.0 0.00 0.00 0.00 93 1018.8
20260901045531 73 0 0.0 1.0 0.00 0.00 0.00 93 1018.7
20260901045029 73 0 0.0 1.0 0.00 0.00 0.00 93 1018.7
20260901044557 73 0 0.0 0.0 0.00 0.00 0.00 92 1018.8
20260901044030 73 0 0.0 0.0 0.00 0.00 0.00 92 1018.8
20260901043530 73 0 0.0 0.0 0.00 0.00 0.00 92 1018.9
20260901043049 73 0 0.0 0.0 0.00 0.00 0.00 91 1018.7
20260901042529 74 0 0.0 0.0 0.00 0.00 0.00 92 1018.8
20260901042029 74 0 0.0 0.0 0.00 0.00 0.00 92 1018.8
20260901041600 74 0 0.0 1.0 0.00 0.00 0.00 91 1018.7
20260901041028 74 0 0.0 1.0 0.00 0.00 0.00 91 1018.7
20260901040549 74 0 0.0 1.0 0.00 0.00 0.00 92 1018.7
20260901040114 74 0 0.0 0.0 0.00 0.00 0.00 91 1018.9
20260901035526 74 0 0.0 0.0 0.00 0.00 0.00 90 1018.8
20260901035029 74 0 0.0 0.0 0.00 0.00 0.00 90 1018.7
20260901034554 74 0 0.0 0.0 0.00 0.00 0.00 91 1018.7
20260901034029 75 0 0.0 0.0 0.00 0.00 0.00 91 1018.6
20260901033529 75 0 0.0 0.0 0.00 0.00 0.00 91 1018.7
20260901033055 75 0 0.0 0.0 0.00 0.00 0.00 90 1018.6
20260901032530 75 0 0.0 0.0 0.00 0.00 0.00 90 1018.6
20260901032025 75 0 0.0 0.0 0.00 0.00 0.00 90 1018.7
20260901031606 75 0 0.0 0.0 0.00 0.00 0.00 89 1018.6
20260901031029 75 0 0.0 0.0 0.00 0.00 0.00 89 1018.7
20260901030530 75 0 0.0 0.0 0.00 0.00 0.00 90 1018.5
20260901030047 75 0 0.0 0.0 0.00 0.00 0.00 89 1018.5
20260901025534 75 0 0.0 0.0 0.00 0.00 0.00 89 1018.6
20260901025030 75 0 0.0 0.0 0.00 0.00 0.00 88 1018.5
20260901024555 76 0 0.0 0.0 0.00 0.00 0.00 88 1018.5
20260901024029 76 0 0.0 0.0 0.00 0.00 0.00 88 1018.6
20260901023531 76 0 0.0 0.0 0.00 0.00 0.00 87 1018.5
20260901023049 76 0 0.0 0.0 0.00 0.00 0.00 88 1018.5
20260901022531 76 0 0.0 0.0 0.00 0.00 0.00 87 1018.4
20260901022032 76 0 0.0 0.0 0.00 0.00 0.00 87 1018.4
20260901021559 77 0 0.0 0.0 0.00 0.00 0.00 87 1018.4
20260901021029 77 0 0.0 0.0 0.00 0.00 0.00 86 1018.2
20260901020530 77 0 0.0 0.0 0.00 0.00 0.00 86 1018.1
20260901020058 77 0 0.0 0.0 0.00 0.00 0.00 85 1018.1
20260901015529 77 0 0.0 0.0 0.00 0.00 0.00 85 1018.0
20260901015029 78 0 0.0 0.0 0.00 0.00 0.00 83 1018.0
20260901014550 78 0 0.0 0.0 0.00 0.00 0.00 84 1018.0
20260901014033 78 0 0.0 0.0 0.00 0.00 0.00 84 1017.9
20260901013529 78 0 0.0 0.0 0.00 0.00 0.00 83 1017.8
20260901013057 79 0 0.0 0.0 0.00 0.00 0.00 83 1017.7
20260901012529 79 0 0.0 0.0 0.00 0.00 0.00 81 1017.7
20260901012030 79 0 0.0 0.0 0.00 0.00 0.00 81 1017.7
20260901011555 80 0 0.0 0.0 0.00 0.00 0.00 79 1017.6
20260901011029 80 0 0.0 1.0 0.00 0.00 0.00 79 1017.6
20260901010529 80 0 0.0 1.0 0.00 0.00 0.00 78 1017.6
20260901010053 81 0 0.0 0.0 0.00 0.00 0.00 78 1017.6
20260901005529 81 0 0.0 0.0 0.00 0.00 0.00 77 1017.5
20260901005030 82 0 0.0 0.0 0.00 0.00 0.00 76 1017.6
20260901004551 82 0 0.0 0.0 0.00 0.00 0.00 75 1017.5
20260901004031 83 0 0.0 0.0 0.00 0.00 0.00 74 1017.5
20260901003528 84 0 0.0 0.0 0.00 0.00 0.00 74 1017.5
20260901003057 84 0 0.0 0.0 0.00 0.00 0.00 73 1017.7
20260901002529 85 0 0.0 0.0 0.00 0.00 0.00 72 1017.7
20260901002033 85 0 0.0 0.0 0.00 0.00 0.00 72 1017.6
20260901001603 86 0 0.0 1.0 0.00 0.00 0.00 71 1017.7
20260901001028 86 0 0.0 2.0 0.00 0.00 0.00 70 1017.6
20260901000528 87 0 0.0 2.0 0.00 0.00 0.00 68 1017.7
20260901000103 87 0 0.0 1.0 0.00 0.00 0.00 67 1017.7
20260831235530 88 0 0.0 1.0 0.00 0.00 0.00 66 1017.7
20260831235029 88 0 0.0 2.0 0.00 0.00 0.00 63 1017.8
20260831234553 89 187 0.0 2.0 0.00 0.00 0.00 60 1017.8
20260831234029 89 187 0.0 2.0 0.00 0.00 0.00 60 1017.8
20260831233531 89 174 0.0 4.0 0.00 0.00 0.00 59 1017.9
20260831233046 89 0 0.0 4.0 0.00 0.00 0.00 59 1017.9
20260831232529 90 169 0.0 2.0 0.00 0.00 0.00 57 1017.9
20260831232028 90 0 0.0 3.0 0.00 0.00 0.00 59 1017.9
20260831231543 90 0 0.0 3.0 0.00 0.00 0.00 58 1018.0
20260831231030 90 194 0.0 2.0 0.00 0.00 0.00 57 1018.0
20260831230528 90 0 0.0 3.0 0.00 0.00 0.00 56 1018.0
20260831230123 91 0 1.0 4.0 0.00 0.00 0.00 57 1018.0
20260831225531 91 189 1.0 4.0 0.00 0.00 0.00 57 1018.1
20260831225034 91 299 0.0 3.0 0.00 0.00 0.00 57 1018.0
20260831224550 91 221 1.0 3.0 0.00 0.00 0.00 57 1018.1
20260831224028 91 234 0.0 2.0 0.00 0.00 0.00 57 1018.2
20260831223529 91 0 0.0 2.0 0.00 0.00 0.00 57 1018.1
20260831223050 92 273 0.0 2.0 0.00 0.00 0.00 56 1018.2
20260831222529 92 252 0.0 3.0 0.00 0.00 0.00 55 1018.2
20260831222028 92 255 1.0 3.0 0.00 0.00 0.00 56 1018.2
20260831221627 92 229 1.0 3.0 0.00 0.00 0.00 56 1018.2
20260831221030 93 202 1.0 4.0 0.00 0.00 0.00 54 1018.2
20260831220528 93 0 1.0 4.0 0.00 0.00 0.00 53 1018.2
20260831220054 93 222 1.0 4.0 0.00 0.00 0.00 53 1018.2
20260831215529 93 0 0.0 4.0 0.00 0.00 0.00 55 1018.3
20260831215030 93 223 1.0 3.0 0.00 0.00 0.00 53 1018.3
20260831214550 94 0 0.0 4.0 0.00 0.00 0.00 53 1018.3
20260831214028 94 0 0.0 4.0 0.00 0.00 0.00 53 1018.2
20260831213529 94 0 1.0 4.0 0.00 0.00 0.00 52 1018.3
20260831213057 94 219 1.0 3.0 0.00 0.00 0.00 52 1018.4
20260831212528 95 215 1.0 4.0 0.00 0.00 0.00 52 1018.3
20260831212031 95 294 1.0 4.0 0.00 0.00 0.00 51 1018.4
20260831211603 95 329 1.0 2.0 0.00 0.00 0.00 50 1018.4
20260831211029 95 279 0.0 2.0 0.00 0.00 0.00 53 1018.5
20260831210531 95 0 1.0 4.0 0.00 0.00 0.00 51 1018.5
20260831210048 94 144 1.0 4.0 0.00 0.00 0.00 52 1018.6
20260831205529 94 213 1.0 4.0 0.00 0.00 0.00 55 1018.7
20260831205029 93 188 2.0 4.0 0.00 0.00 0.00 56 1018.7
20260831204559 93 75 0.0 4.0 0.00 0.00 0.00 53 1018.6
20260831204030 93 355 1.0 4.0 0.00 0.00 0.00 57 1018.7
20260831203528 92 311 0.0 2.0 0.00 0.00 0.00 56 1018.7
20260831203057 93 0 0.0 2.0 0.00 0.00 0.00 57 1018.7
20260831202534 93 250 0.0 1.0 0.00 0.00 0.00 57 1018.6
20260831202029 93 244 0.0 1.0 0.00 0.00 0.00 57 1018.7
20260831201556 94 277 0.0 1.0 0.00 0.00 0.00 54 1018.7
20260831201028 94 123 0.0 4.0 0.00 0.00 0.00 55 1018.8
20260831200530 94 0 1.0 4.0 0.00 0.00 0.00 56 1019.1
20260831200048 94 68 1.0 6.0 0.00 0.00 0.00 57 1019.1
20260831195529 93 269 2.0 6.0 0.00 0.00 0.00 56 1019.2
20260831195029 93 44 3.0 7.0 0.00 0.00 0.00 57 1019.4
20260831194658 93 63 3.0 7.0 0.00 0.00 0.00 57 1019.4
20260831194034 93 53 2.0 4.0 0.00 0.00 0.00 59 1019.2
20260831193529 94 88 1.0 4.0 0.00 0.00 0.00 55 1019.3
20260831193057 94 190 1.0 5.0 0.00 0.00 0.00 54 1019.4
20260831192528 95 245 2.0 5.0 0.00 0.00 0.00 55 1019.5
20260831192032 95 126 2.0 6.0 0.00 0.00 0.00 57 1019.5
20260831191553 95 267 3.0 6.0 0.00 0.00 0.00 55 1019.5
20260831191027 95 0 1.0 8.0 0.00 0.00 0.00 54 1019.6
20260831190529 95 229 2.0 8.0 0.00 0.00 0.00 56 1019.5
20260831190053 94 290 2.0 8.0 0.00 0.00 0.00 58 1019.5
20260831185528 93 269 2.0 6.0 0.00 0.00 0.00 62 1019.6
20260831185030 93 0 1.0 4.0 0.00 0.00 0.00 61 1019.6
20260831184547 94 298 1.0 7.0 0.00 0.00 0.00 57 1019.7
20260831184029 94 240 1.0 9.0 0.00 0.00 0.00 60 1019.8
20260831183530 94 216 1.0 9.0 0.00 0.00 0.00 58 1019.8
20260831183056 94 243 4.0 9.0 0.00 0.00 0.00 59 1019.8
20260831182529 93 153 2.0 8.0 0.00 0.00 0.00 59 1020.0
20260831182030 93 57 4.0 8.0 0.00 0.00 0.00 59 1019.9
20260831181557 93 202 2.0 7.0 0.00 0.00 0.00 59 1020.0
20260831181029 93 193 3.0 10.0 0.00 0.00 0.00 58 1020.1
20260831180532 93 213 3.0 10.0 0.00 0.00 0.00 59 1020.2
20260831180100 94 149 4.0 10.0 0.00 0.00 0.00 56 1020.2
20260831175530 94 237 3.0 9.0 0.00 0.00 0.00 57 1020.3
20260831175028 95 133 3.0 9.0 0.00 0.00 0.00 56 1020.3
20260831174556 95 206 2.0 9.0 0.00 0.00 0.00 58 1020.4
20260831174032 95 200 2.0 8.0 0.00 0.00 0.00 59 1020.3
20260831173529 94 159 2.0 8.0 0.00 0.00 0.00 60 1020.5
20260831173046 94 183 3.0 8.0 0.00 0.00 0.00 58 1020.5
20260831172529 94 178 3.0 9.0 0.00 0.00 0.00 59 1020.5
20260831172029 94 184 3.0 9.0 0.00 0.00 0.00 57 1020.5
20260831171557 94 196 3.0 9.0 0.00 0.00 0.00 60 1020.6
20260831171028 93 289 3.0 7.0 0.00 0.00 0.00 61 1020.7
20260831170528 93 151 1.0 8.0 0.00 0.00 0.00 62 1020.7
20260831170126 93 124 3.0 8.0 0.00 0.00 0.00 59 1020.8
20260831165529 93 223 2.0 7.0 0.00 0.00 0.00 63 1020.8
20260831165029 93 263 2.0 8.0 0.00 0.00 0.00 61 1020.9
20260831164601 93 250 1.0 8.0 0.00 0.00 0.00 61 1020.8
20260831164029 93 254 2.0 6.0 0.00 0.00 0.00 62 1020.9
20260831163530 92 198 1.0 6.0 0.00 0.00 0.00 62 1020.9
20260831163056 92 272 2.0 7.0 0.00 0.00 0.00 59 1021.1
20260831162531 92 293 3.0 7.0 0.00 0.00 0.00 60 1021.0
20260831162029 92 304 2.0 7.0 0.00 0.00 0.00 62 1021.0
20260831161611 93 211 3.0 11.0 0.00 0.00 0.00 61 1021.0
20260831161033 92 261 4.0 11.0 0.00 0.00 0.00 61 1020.9
20260831160528 93 186 2.0 9.0 0.00 0.00 0.00 63 1020.9
20260831160050 93 261 2.0 9.0 0.00 0.00 0.00 63 1020.9
20260831155530 92 245 3.0 7.0 0.00 0.00 0.00 62 1020.9
20260831155031 92 310 3.0 7.0 0.00 0.00 0.00 64 1020.8
20260831154620 92 163 3.0 8.0 0.00 0.00 0.00 65 1020.8
20260831154032 92 0 1.0 12.0 0.00 0.00 0.00 64 1020.9
20260831153528 91 192 4.0 12.0 0.00 0.00 0.00 64 1020.9
20260831153057 91 187 3.0 9.0 0.00 0.00 0.00 65 1021.0
20260831152527 91 170 3.0 9.0 0.00 0.00 0.00 65 1020.9
20260831152030 91 190 1.0 7.0 0.00 0.00 0.00 66 1021.0
20260831151552 91 181 3.0 7.0 0.00 0.00 0.00 64 1020.9
20260831151030 91 212 2.0 7.0 0.00 0.00 0.00 64 1021.0
20260831150529 91 272 3.0 8.0 0.00 0.00 0.00 65 1020.9
20260831150059 91 241 3.0 8.0 0.00 0.00 0.00 66 1020.9
20260831145529 90 265 2.0 6.0 0.00 0.00 0.00 67 1020.9
20260831145028 90 299 2.0 7.0 0.00 0.00 0.00 68 1020.7
20260831144559 89 178 3.0 7.0 0.00 0.00 0.00 67 1020.7
20260831144027 89 219 3.0 7.0 0.00 0.00 0.00 67 1020.7
20260831143531 89 184 2.0 7.0 0.00 0.00 0.00 69 1020.6
20260831143052 89 241 3.0 7.0 0.00 0.00 0.00 68 1020.6
20260831142530 88 279 3.0 7.0 0.00 0.00 0.00 70 1020.6
20260831142030 88 149 2.0 6.0 0.00 0.00 0.00 69 1020.5
20260831141558 87 189 2.0 8.0 0.00 0.00 0.00 71 1020.6
20260831141028 87 164 2.0 8.0 0.00 0.00 0.00 72 1020.5
20260831140532 86 183 2.0 6.0 0.00 0.00 0.00 73 1020.5
20260831140055 86 253 2.0 6.0 0.00 0.00 0.00 73 1020.5